When you browse on this site, cookies collect data to enhance your experience and personalize the content and advertising you see.
Visit our Privacy Policy to learn more. By continuing to use the site, you agree to this use of cookies and data.
  • In Österreich
  • Länderverzeichnis
  • Für 7 Tage
  • Wassertemperatur
  • Satellitenkarten
  • Wetterkarte
  • News
  • Widgets
  • user-avatar
    Anmelden

    Stündliche Wetter Murzynowo

    Heute, 21 März, Donnerstag

    Zeit Temperatur Niederschläge Wind Luftdruck Luftfeuchtigkeit
    00:00 +8°C° 0 mm 3 m/S 772 mmHg 80%
    01:00 +7°C° 0 mm 3 m/S 772 mmHg 85%
    02:00 +7°C° 0 mm 2 m/S 772 mmHg 88%
    03:00 +7°C° 0 mm 2 m/S 772 mmHg 92%
    04:00 +6°C° 0 mm 2 m/S 772 mmHg 95%
    05:00 +6°C° 0 mm 2 m/S 772 mmHg 96%
    06:00 +6°C° 0 mm 2 m/S 772 mmHg 97%
    07:00 +6°C° 0 mm 2 m/S 772 mmHg 97%
    08:00 +8°C° 0 mm 3 m/S 772 mmHg 90%
    09:00 +10°C° 0 mm 3 m/S 772 mmHg 82%
    10:00 +11°C° 0 mm 4 m/S 772 mmHg 75%
    11:00 +12°C° 0 mm 4 m/S 772 mmHg 73%
    12:00 +13°C° 0 mm 4 m/S 772 mmHg 71%
    13:00 +13°C° 0 mm 4 m/S 772 mmHg 69%
    14:00 +13°C° 0 mm 4 m/S 772 mmHg 69%
    15:00 +14°C° 0 mm 3 m/S 771 mmHg 68%
    16:00 +14°C° 0 mm 3 m/S 771 mmHg 67%
    17:00 +13°C° 0 mm 3 m/S 771 mmHg 71%
    18:00 +13°C° 0 mm 3 m/S 771 mmHg 76%
    19:00 +13°C° 0 mm 2 m/S 771 mmHg 80%
    20:00 +12°C° 0 mm 2 m/S 771 mmHg 83%
    21:00 +12°C° 0 mm 2 m/S 771 mmHg 86%
    22:00 +10°C° 0 mm 2 m/S 771 mmHg 88%
    23:00 +10°C° 0 mm 2 m/S 771 mmHg 89%

    Morgen, 22 März, Freitag

    Zeit Temperatur Niederschläge Wind Luftdruck Luftfeuchtigkeit
    00:00 +10°C° 0 mm 2 m/S 772 mmHg 90%
    01:00 +10°C° 0 mm 2 m/S 772 mmHg 91%
    02:00 +9°C° 0 mm 2 m/S 772 mmHg 92%
    03:00 +9°C° 0 mm 2 m/S 772 mmHg 93%
    04:00 +10°C° 0 mm 1 m/S 771 mmHg 94%
    05:00 +10°C° 0 mm 1 m/S 772 mmHg 95%
    06:00 +9°C° 0 mm 1 m/S 772 mmHg 95%
    07:00 +9°C° 0 mm 1 m/S 772 mmHg 96%
    08:00 +11°C° 0 mm 1 m/S 772 mmHg 88%
    09:00 +13°C° 0 mm 1 m/S 772 mmHg 80%
    10:00 +14°C° 0 mm 1 m/S 772 mmHg 72%
    11:00 +15°C° 0 mm 1 m/S 772 mmHg 67%
    12:00 +18°C° 0 mm 1 m/S 772 mmHg 62%
    13:00 +19°C° 0 mm 1 m/S 771 mmHg 57%
    14:00 +19°C° 0 mm 1 m/S 771 mmHg 57%
    15:00 +17°C° 0 mm 0 m/S 770 mmHg 56%
    16:00 +17°C° 0 mm 0 m/S 770 mmHg 55%
    17:00 +16°C° 0 mm 0 m/S 770 mmHg 60%
    18:00 +16°C° 0 mm 1 m/S 770 mmHg 66%
    19:00 +14°C° 0 mm 1 m/S 770 mmHg 71%
    20:00 +14°C° 0 mm 1 m/S 769 mmHg 75%
    21:00 +13°C° 0 mm 2 m/S 769 mmHg 79%
    22:00 +12°C° 0 mm 2 m/S 769 mmHg 83%
    23:00 +12°C° 0 mm 2 m/S 769 mmHg 85%

    übermorgen, 23 März, Samstag

    Zeit Temperatur Niederschläge Wind Luftdruck Luftfeuchtigkeit
    00:00 +10°C° 0 mm 2 m/S 769 mmHg 87%
    01:00 +10°C° 0 mm 2 m/S 768 mmHg 89%
    02:00 +10°C° 0 mm 2 m/S 768 mmHg 89%
    03:00 +9°C° 0 mm 2 m/S 768 mmHg 90%
    04:00 +9°C° 0 mm 2 m/S 767 mmHg 91%
    05:00 +9°C° 0 mm 2 m/S 767 mmHg 90%
    06:00 +9°C° 0 mm 2 m/S 767 mmHg 88%
    07:00 +9°C° 0 mm 2 m/S 767 mmHg 87%
    08:00 +12°C° 0 mm 2 m/S 767 mmHg 78%
    09:00 +14°C° 0 mm 2 m/S 767 mmHg 70%
    10:00 +16°C° 0 mm 2 m/S 767 mmHg 61%
    11:00 +17°C° 0 mm 3 m/S 766 mmHg 58%
    12:00 +18°C° 0 mm 3 m/S 766 mmHg 55%
    13:00 +19°C° 0 mm 3 m/S 766 mmHg 52%
    14:00 +19°C° 0.1 mm 3 m/S 766 mmHg 53%
    15:00 +19°C° 0.1 mm 4 m/S 766 mmHg 55%
    16:00 +18°C° 0.1 mm 4 m/S 766 mmHg 57%
    17:00 +15°C° 0 mm 4 m/S 766 mmHg 64%
    18:00 +13°C° 0 mm 4 m/S 767 mmHg 71%
    19:00 +10°C° 0 mm 5 m/S 767 mmHg 78%
    20:00 +10°C° 0 mm 4 m/S 768 mmHg 73%
    21:00 +8°C° 0 mm 4 m/S 768 mmHg 68%
    22:00 +8°C° 0 mm 3 m/S 769 mmHg 63%
    23:00 +7°C° 0 mm 3 m/S 769 mmHg 62%

    24 März, Sonntag

    Zeit Temperatur Niederschläge Wind Luftdruck Luftfeuchtigkeit
    00:00 +5°C° 0 mm 3 m/S 769 mmHg 62%
    01:00 +6°C° 0 mm 2 m/S 769 mmHg 61%
    02:00 +5°C° 0 mm 2 m/S 769 mmHg 62%
    03:00 +5°C° 0 mm 2 m/S 769 mmHg 63%
    04:00 +4°C° 0 mm 2 m/S 769 mmHg 65%
    05:00 +4°C° 0 mm 2 m/S 770 mmHg 65%
    06:00 +4°C° 0 mm 2 m/S 770 mmHg 66%
    07:00 +4°C° 0 mm 2 m/S 770 mmHg 66%
    08:00 +6°C° 0 mm 2 m/S 769 mmHg 59%
    09:00 +7°C° 0 mm 2 m/S 769 mmHg 52%
    10:00 +8°C° 0 mm 2 m/S 769 mmHg 45%
    11:00 +9°C° 0 mm 2 m/S 769 mmHg 41%
    12:00 +12°C° 0 mm 2 m/S 768 mmHg 37%
    13:00 +13°C° 0 mm 1 m/S 767 mmHg 33%
    14:00 +13°C° 0 mm 1 m/S 767 mmHg 33%
    15:00 +13°C° 0 mm 1 m/S 766 mmHg 33%
    16:00 +13°C° 0 mm 1 m/S 766 mmHg 33%
    17:00 +10°C° 0 mm 2 m/S 766 mmHg 38%
    18:00 +9°C° 0 mm 2 m/S 765 mmHg 44%
    19:00 +7°C° 0 mm 2 m/S 765 mmHg 49%
    20:00 +7°C° 0 mm 2 m/S 765 mmHg 52%
    21:00 +6°C° 0 mm 2 m/S 765 mmHg 55%
    22:00 +6°C° 0 mm 2 m/S 764 mmHg 58%
    23:00 +7°C° 0 mm 1 m/S 764 mmHg 59%

    25 März, Montag

    Zeit Temperatur Niederschläge Wind Luftdruck Luftfeuchtigkeit
    00:00 +7°C° 0 mm 1 m/S 764 mmHg 60%
    01:00 +7°C° 0 mm 1 m/S 763 mmHg 61%
    02:00 +6°C° 0 mm 1 m/S 763 mmHg 63%
    03:00 +6°C° 0 mm 1 m/S 763 mmHg 65%
    04:00 +5°C° 0 mm 1 m/S 762 mmHg 67%
    05:00 +4°C° 0 mm 2 m/S 762 mmHg 69%
    06:00 +3°C° 0 mm 3 m/S 762 mmHg 71%
    07:00 +3°C° 0 mm 3 m/S 762 mmHg 73%
    08:00 +5°C° 0 mm 4 m/S 762 mmHg 64%
    09:00 +6°C° 0 mm 5 m/S 762 mmHg 55%
    10:00 +7°C° 0 mm 6 m/S 761 mmHg 46%
    11:00 +7°C° 0.1 mm 6 m/S 761 mmHg 51%
    12:00 +8°C° 0.1 mm 7 m/S 760 mmHg 55%
    13:00 +8°C° 0.1 mm 7 m/S 760 mmHg 59%
    14:00 +6°C° 0.6 mm 7 m/S 759 mmHg 61%
    15:00 +6°C° 0.6 mm 8 m/S 759 mmHg 63%
    16:00 +5°C° 0.6 mm 8 m/S 758 mmHg 65%
    17:00 +4°C° 0.2 mm 7 m/S 758 mmHg 66%
    18:00 +3°C° 0.2 mm 6 m/S 759 mmHg 67%
    19:00 +3°C° 0.2 mm 5 m/S 759 mmHg 68%
    20:00 +2°C° 0 mm 6 m/S 758 mmHg 69%
    21:00 +2°C° 0 mm 6 m/S 758 mmHg 71%
    22:00 +2°C° 0 mm 7 m/S 758 mmHg 72%
    23:00 +2°C° 0 mm 7 m/S 758 mmHg 71%

    26 März, Dienstag

    Zeit Temperatur Niederschläge Wind Luftdruck Luftfeuchtigkeit
    00:00 0°C° 0 mm 7 m/S 758 mmHg 71%
    01:00 0°C° 0 mm 7 m/S 757 mmHg 71%
    02:00 0°C° 0 mm 8 m/S 757 mmHg 69%
    03:00 0°C° 0 mm 8 m/S 757 mmHg 67%
    04:00 0°C° 0 mm 8 m/S 757 mmHg 65%
    05:00 0°C° 0 mm 8 m/S 758 mmHg 62%
    06:00 -1°C° 0 mm 8 m/S 758 mmHg 59%
    07:00 -1°C° 0 mm 8 m/S 759 mmHg 56%
    08:00 0°C° 0 mm 8 m/S 760 mmHg 53%
    09:00 0°C° 0 mm 9 m/S 760 mmHg 50%
    10:00 +1°C° 0 mm 9 m/S 761 mmHg 47%
    11:00 +1°C° 0 mm 9 m/S 762 mmHg 45%
    12:00 +2°C° 0 mm 9 m/S 762 mmHg 43%
    13:00 +2°C° 0 mm 9 m/S 763 mmHg 40%
    14:00 +2°C° 0 mm 8 m/S 764 mmHg 42%
    15:00 +2°C° 0 mm 8 m/S 764 mmHg 44%
    16:00 +2°C° 0 mm 8 m/S 765 mmHg 45%
    17:00 +2°C° 0 mm 7 m/S 765 mmHg 48%
    18:00 +1°C° 0 mm 6 m/S 766 mmHg 52%
    19:00 0°C° 0 mm 5 m/S 766 mmHg 55%
    20:00 0°C° 0 mm 5 m/S 767 mmHg 56%
    21:00 -1°C° 0 mm 5 m/S 767 mmHg 58%
    22:00 -1°C° 0 mm 5 m/S 768 mmHg 59%
    23:00 -1°C° 0 mm 4 m/S 768 mmHg 61%
    Mehr zeigen